Location: Kawakawa
(35.3830°S, 174.0670°E)
Time: 00:22:36
(UTC+13:00)

A-11 Canister half - Pass Details

Date: 11 December 2019
Orbit: 1525 x 1684 km, 47.3° (Epoch: 23 January)

Event Time Altitude Azimuth Distance (km) Brightness Sun altitude
Rises 03:21:20 0° 242° (WSW) 4,740 11.5 -24.6°
Reaches altitude 10° 03:24:45 10° 250° (WSW) 3,772 10.9 -24.3°
Enters shadow 03:32:09 33° 301° (WNW) 2,452 9.6 -23.4°
